Regional Weather Roundup
Issued by NWS

Home | Current Version | Previous Version | Graphics & Text | Print | Product List | Glossary Off
Versions: 1 2 3 4 5 6 7 8 9 10 11 12 13 14 15 16 17 18 19 20 21 22 23 24 25 26 27 28 29 30 31 32 33 34 35 36 37 38 39 40 41 42 43 44 45 46 47 48 49 50

000
ASUS43 KTOP 170208
RWRKS

WEATHER ROUNDUP FOR KANSAS
NATIONAL WEATHER SERVICE GOODLAND KS
800 PM CST TUE JAN 16 2018

NOTE:  "FAIR" INDICATES FEW OR NO CLOUDS BELOW 12,000 FEET WITH NO
SIGNIFICANT WEATHER AND/OR OBSTRUCTIONS TO VISIBILITY.

KSZ001>006-013>018-027>032-041>047-170300-
NORTHWEST KANSAS

CITY           SKY/WX    TMP DP  RH WIND       PRES   REMARKS
GOODLAND       CLEAR     10  -1  61 S10       30.43S WCI  -4
HAYS           CLOUDY     5  -2  72 S5        30.62F
HILL CITY      CLOUDY     7  -1  70 SW5       30.58F
RUSSELL        CLOUDY     6   0  76 S6        30.62F
$$

KSZ061>065-074>080-084>089-170300-
SOUTHWEST KANSAS

CITY           SKY/WX    TMP DP  RH WIND       PRES   REMARKS
DODGE CITY     CLOUDY     8  -5  55 SE7       30.58F
ELKHART        PTCLDY    13   0  56 SE9       30.48F
GARDEN CITY    CLOUDY     8 -10  43 SE9       30.54S
GREAT BEND     CLOUDY     3  -1  83 S3        30.65F
LIBERAL        CLOUDY    11  -7  44 SE7       30.56F
PRATT          CLOUDY    10   1  65 CALM      30.64F
$$

KSZ066>073-081>083-090>101-170300-
SOUTHEAST KANSAS

CITY           SKY/WX    TMP DP  RH WIND       PRES   REMARKS
CHANUTE        CLEAR      6   1  80 CALM      30.73F
COFFEYVILLE    CLOUDY     7   3  84 CALM      30.77S
HUTCHINSON     CLOUDY     2   0  91 CALM      30.67F
MEDICINE LODGE   N/A      9   1  70 CALM      30.68F
NEWTON         CLOUDY     5   0  79 W3        30.68F
PARSONS        CLOUDY     2  -1  88 CALM      30.76S
WICHITA INTL   CLEAR     12   5  73 N3        30.70F
WICHITA JABRA  CLOUDY     8   3  80 CALM      30.69F
WICHITA MCCONL CLEAR     11   3  72 CALM      30.69F
WINFIELD       CLOUDY     9   4  80 CALM      30.73S
$$

KSZ007>012-019>026-033>040-048>060-102>105-170300-
NORTHEAST KANSAS

CITY           SKY/WX    TMP DP  RH WIND       PRES   REMARKS
CONCORDIA      CLOUDY    10   3  73 CALM      30.66S
EMPORIA        CLEAR      5   0  79 CALM      30.70S
LAWRENCE       CLOUDY    -1  -4  87 CALM      30.74S
MANHATTAN      CLOUDY     4  -1  80 CALM      30.71F
MARYSVILLE     CLOUDY     9   3  78 W3        30.69R
OLATHE IND     CLOUDY     3  -2  79 N7        30.71S
OLATHE EXE     CLEAR      6   0  76 N6        30.70S
SALINA         CLOUDY     5   1  83 CALM      30.70S
TOPEKA BILLARD CLOUDY     7   1  76 CALM      30.73S
TOPEKA FORBES  CLOUDY     5  -1  76 NW3       30.71S
$$




USA.gov is the U.S. government's official web portal to all federal, state and local government web resources and services.